{"data":{"norad_id":58661,"intl_designator":"2023-208B","name":"TIANMU-1 20","alt_names":[],"object_type":"PAYLOAD","status":"ACTIVE","operator":null,"country":"PRC","launch_date":"2023-12-27","launch_site_code":"JSC","launch_vehicle":null,"mission":null,"orbit_class":"UNKNOWN","rcs_meters":null,"size_class":null,"mass_kg":null,"dimensions":null,"purposes":["earth_obs"],"wikipedia_slug":null,"has_3d_model":false,"image_url":null,"decayed_at":null,"tle_current":{"epoch":"2026-09-19T22:41:14.339904Z","epoch_age_seconds":62448,"freshness":"FRESH","line1":"1 58661U 23208B   26262.94530486  .00005810  00000+0  17870-3 0  9997","line2":"2 58661  97.4518  20.5944 0006463 357.0155   3.1047 15.34055727151945","mean_motion":15.34055727,"eccentricity":0.0006463,"inclination_deg":97.4518,"raan_deg":20.5944,"arg_perigee_deg":357.0155,"mean_anomaly_deg":3.1047,"bstar":0.0001787,"rev_number":15194,"period_min":93.86881940828,"perigee_km":459.30478697723,"apogee_km":468.14857997449,"semimajor_km":6841.8636834759,"source":"CELESTRAK","updated_at":"2026-09-20T09:00:33.255110Z"}}}